Location: Korczew
(51.3586°N, 19.4491°E)
Time: 08:46:03
(UTC+00:00)

Sich 1 - Pass Details

Date: 19 May 2025
Orbit: 574 x 603 km, 82.5° (Epoch: 17 June)

Event Time Altitude Azimuth Distance (km) Brightness Sun altitude
Rises 22:31:01 0° 343° (NNW) 2,838 7.9 -18.6°
Reaches altitude 10° 22:33:21 10° 335° (NNW) 1,927 6.6 -18.7°
Maximum altitude 22:37:16 37° 268° (W) 921 3.9 -18.7°
Enters shadow 22:38:31 30° 231° (SW) 1,065 3.9 -18.7°
